Location: Recife
(8.0585°S, 34.8848°W)
Time: 09:55:37
(UTC-03:00)

SR - Pass Details

Date: 16 April 2026
Orbit: 568 x 852 km, 66.7° (Epoch: 12 May)

Event Time Altitude Azimuth Distance (km) Brightness Sun altitude
Rises 23:27:15 0° 357° (N) 3,398 - -86.9°
Reaches altitude 10° 23:29:55 10° 5° (N) 2,462 - -86.4°
Maximum altitude 23:35:07 36° 71° (ENE) 1,289 - -85.4°
Drops below altitude 10° 23:40:10 10° 136° (SE) 2,391 - -84.3°
Sets 23:42:42 0° 144° (SE) 3,288 - -83.7°
